Wetbulb
76.48 74.72 73.45 71.52 71.05 71.13 71.05 71.10 71.18 71.36 71.61 71.88 72.02 71.73 71.21 71.69 72.00 71.86 71.50 71.25 70.88 70.43 69.64 68.88 68.56 67.96 67.38 66.68 66.35 67.44 69.60 71.37
76.48 75.28 74.41 74.35 74.40 70.34 70.29 70.50 70.43 70.78 71.13 71.13 70.65 70.67 70.92 71.14 70.92 71.04 70.88 70.65 70.34 69.80 68.79 68.28 67.62 66.93 66.16 65.70 65.44 67.51 69.36 69.45
75.63 75.13 74.17 74.70 73.81 73.28 71.02 70.82 70.61 70.43 71.21 70.60 69.85 73.04 72.84 72.21 70.69 69.97 70.28 69.85 69.29 68.79 68.17 67.30 66.49 66.13 65.90 65.49 65.50 68.01 68.15 68.31
74.19 73.94 74.59 74.38 73.17 74.21 73.80 73.15 73.52 73.09 72.62 73.17 73.03 72.77 72.65 71.84 70.86 69.17 69.21 68.66 68.24 67.95 67.21 66.43 66.35 67.54 66.76 65.13 66.77 67.54 67.21 67.91
74.05 74.44 75.35 74.39 74.60 74.17 73.75 73.55 73.15 73.86 73.67 73.70 73.09 72.26 72.80 72.26 71.91 71.40 71.10 68.77 68.81 68.06 67.65 67.19 67.27 67.10 67.02 66.76 67.96 67.39 66.99 67.49
73.91 74.09 74.49 74.58 74.48 73.81 73.57 73.58 72.77 74.28 73.82 73.16 72.33 72.91 72.48 72.16 71.75 70.81 70.25 69.38 68.43 68.32 67.92 68.47 68.65 68.17 67.59 67.72 67.63 66.84 65.84 67.41
72.92 74.05 73.88 73.58 73.65 72.68 73.88 73.04 72.39 74.61 74.07 73.08 72.55 72.74 72.00 72.20 71.41 70.59 70.03 69.06 69.32 68.96 68.89 69.02 69.05 68.48 68.07 68.10 67.18 66.36 66.26 66.71
71.94 74.02 74.50 73.02 73.04 72.91 74.20 74.23 73.79 74.02 74.02 73.38 73.60 72.91 72.07 71.69 71.37 70.50 70.12 68.96 69.41 69.32 68.85 68.64 68.53 68.59 68.11 68.00 66.99 66.52 66.30 66.86
67.51 74.85 75.47 73.18 72.82 72.09 73.75 74.27 73.58 73.92 73.40 73.82 73.86 73.58 72.76 72.34 71.33 70.62 70.34 69.08 70.00 69.79 70.38 69.20 68.19 68.00 67.52 67.81 66.96 66.75 65.98 66.46
66.45 70.19 74.97 73.91 73.31 73.42 73.12 74.05 73.79 73.59 73.99 73.67 73.89 73.48 73.36 72.59 71.05 70.87 70.61 69.72 69.01 69.49 68.89 67.60 67.83 66.88 67.09 67.06 66.66 66.57 66.56 66.20
65.05 67.48 74.28 73.75 73.45 73.98 72.98 75.05 73.48 72.58 74.07 73.48 73.60 73.39 73.20 72.51 71.22 70.83 70.76 69.00 68.34 68.67 68.79 68.08 66.90 66.36 66.45 66.50 66.75 65.92 66.51 66.17
64.69 66.41 73.59 74.11 73.41 72.98 72.87 73.15 73.61 73.43 72.08 72.77 72.45 72.76 72.97 72.40 72.05 71.66 69.87 68.38 68.61 68.58 67.31 67.66 67.27 66.15 64.68 65.26 66.27 65.95 66.35 65.94
64.48 65.09 68.19 73.03 72.65 71.12 70.61 68.84 72.43 72.75 72.78 72.02 71.28 71.82 72.10 72.08 71.72 71.36 69.44 67.48 67.30 67.80 67.67 66.74 66.25 67.18 64.66 64.56 64.81 65.98 66.62 65.80
63.52 64.34 66.19 70.87 71.41 71.27 70.60 70.01 71.85 72.83 72.22 70.97 70.97 71.74 71.96 72.24 71.81 70.90 69.64 67.47 67.93 67.50 66.60 64.73 65.34 66.23 61.93 62.49 59.47 61.66 64.00 65.33
63.53 64.58 64.88 66.92 71.80 71.88 69.45 70.77 71.32 70.87 70.39 71.03 71.13 72.05 72.10 71.83 71.72 71.17 69.95 68.38 66.93 67.03 66.30 65.53 62.91 64.54 64.74 62.23 58.76 57.09 60.41 63.90
64.29 64.91 65.26 66.15 72.66 71.31 69.26 66.88 66.96 68.67 68.84 71.03 70.74 70.82 71.44 71.91 71.44 71.52 69.70 68.46 67.13 67.32 66.63 65.31 63.21 61.01 63.16 65.00 65.42 63.15 57.99 57.15
62.91 62.42 64.78 66.36 68.64 70.62 70.06 67.28 68.83 70.65 70.49 70.28 70.34 70.13 71.45 71.96 72.11 71.55 70.24 68.02 66.68 65.22 63.93 63.22 62.84 60.39 61.31 61.06 62.27 62.98 64.76 61.16
62.29 63.60 63.34 66.12 67.49 71.27 69.73 68.13 69.24 68.97 69.87 69.56 69.98 70.27 71.66 71.57 71.75 70.97 69.85 67.94 65.86 63.66 62.85 62.52 61.41 61.07 61.83 61.62 60.89 60.99 61.42 62.24
56.66 58.90 62.63 64.77 66.84 70.28 69.60 69.27 68.12 69.40 69.42 69.94 69.45 69.21 69.92 69.01 69.70 68.91 67.72 67.29 66.20 64.70 63.09 62.37 61.50 60.55 60.31 61.83 62.71 61.82 63.27 63.16
49.53 52.87 54.30 55.48 61.21 66.53 70.01 68.67 66.92 66.90 68.76 70.25 70.50 69.91 68.99 69.53 68.62 68.02 67.71 66.53 66.08 65.45 63.40 62.57 62.07 61.97 61.13 61.91 63.14 63.51 64.13 63.50
MSLP
1006.32 1007.67 1008.62 1008.84 1009.09 1009.47 1009.92 1010.48 1011.07 1011.45 1011.98 1013.02 1013.77 1014.28 1014.56 1014.69 1015.11 1015.68 1016.27 1016.81 1017.44 1017.88 1018.33 1018.61 1018.94 1019.04 1019.17 1019.02 1018.71 1018.25 1017.78 1018.10
1006.46 1007.19 1007.98 1008.58 1009.16 1009.56 1009.91 1010.35 1011.08 1011.49 1011.76 1012.51 1013.82 1014.55 1014.89 1015.02 1015.32 1015.80 1016.39 1016.99 1017.59 1018.07 1018.54 1018.93 1019.15 1019.50 1019.53 1019.32 1019.01 1018.49 1017.27 1017.68
1006.75 1007.14 1007.52 1007.88 1008.68 1009.38 1010.08 1010.52 1011.08 1011.64 1011.93 1012.41 1013.47 1014.35 1015.04 1015.45 1015.30 1015.97 1016.58 1017.26 1017.80 1018.26 1018.72 1019.16 1019.53 1019.82 1020.02 1019.76 1019.39 1018.10 1018.00 1017.96
1006.79 1007.05 1007.18 1007.53 1008.22 1008.85 1009.51 1010.19 1010.69 1011.30 1011.70 1012.39 1012.74 1013.52 1014.54 1014.93 1015.49 1016.18 1016.81 1017.47 1017.93 1018.45 1018.99 1019.36 1019.63 1019.54 1019.99 1020.14 1019.19 1018.55 1018.30 1018.45
1005.62 1006.45 1006.58 1007.10 1007.49 1008.10 1008.61 1009.40 1009.94 1010.52 1011.30 1011.91 1011.87 1012.83 1014.01 1014.57 1015.48 1016.22 1016.84 1017.64 1017.80 1018.55 1019.17 1019.05 1018.71 1018.85 1019.36 1019.27 1018.50 1019.08 1018.62 1018.87
1004.11 1005.47 1006.18 1006.63 1006.96 1007.53 1007.79 1008.56 1009.33 1009.78 1010.35 1011.44 1011.40 1012.08 1013.26 1013.76 1014.64 1015.21 1015.88 1016.87 1017.04 1017.70 1018.32 1018.28 1018.17 1018.38 1018.94 1018.84 1018.83 1018.68 1018.80 1019.22
1002.19 1004.13 1005.45 1006.18 1006.75 1007.20 1007.44 1007.95 1008.82 1008.91 1009.78 1010.86 1010.72 1011.37 1012.61 1013.22 1013.93 1014.31 1014.90 1016.02 1016.33 1016.92 1017.44 1017.61 1017.69 1018.08 1018.65 1018.70 1019.03 1018.75 1018.98 1019.40
1001.00 1002.62 1004.36 1005.70 1006.17 1006.73 1006.67 1007.04 1007.66 1008.10 1008.89 1009.60 1010.23 1010.49 1011.87 1012.69 1013.46 1013.69 1014.20 1015.17 1015.75 1016.45 1016.68 1017.02 1017.57 1017.91 1018.42 1018.76 1019.00 1019.17 1019.47 1019.63
1000.12 1001.00 1002.69 1004.53 1005.47 1006.21 1006.01 1006.04 1006.64 1007.19 1007.99 1008.90 1009.74 1010.02 1011.05 1011.83 1012.75 1013.11 1013.65 1014.59 1015.07 1015.72 1016.20 1016.80 1017.39 1017.80 1018.30 1018.73 1018.97 1019.29 1019.57 1019.79
999.36 999.77 1001.29 1002.93 1004.35 1005.07 1005.41 1004.90 1005.75 1006.27 1006.99 1008.09 1008.93 1009.48 1010.23 1011.15 1012.18 1012.54 1013.23 1014.09 1014.42 1014.99 1015.79 1016.64 1017.06 1017.60 1017.97 1018.47 1018.79 1019.23 1019.57 1019.96
998.62 999.60 999.68 1001.64 1002.87 1003.67 1005.07 1004.49 1005.21 1005.63 1006.17 1007.07 1008.02 1009.06 1009.47 1010.39 1011.55 1012.13 1012.84 1013.72 1014.35 1014.62 1015.56 1016.34 1016.71 1017.18 1017.58 1018.16 1018.52 1018.90 1019.42 1019.81
997.81 998.68 998.94 1000.20 1001.56 1002.62 1003.34 1003.95 1004.25 1005.20 1005.82 1006.42 1007.32 1008.26 1008.96 1009.93 1010.66 1011.85 1012.67 1013.38 1013.93 1014.39 1015.08 1015.88 1016.24 1016.80 1017.14 1017.85 1018.48 1018.69 1019.02 1019.37
996.98 998.02 998.38 999.22 1000.12 1001.66 1002.21 1003.12 1003.47 1004.16 1004.94 1005.87 1006.67 1007.44 1008.27 1009.35 1010.04 1011.24 1012.42 1012.85 1013.19 1013.91 1014.79 1015.47 1015.89 1016.59 1017.01 1017.71 1018.43 1018.79 1018.86 1019.07
996.29 996.90 997.60 998.29 999.75 1000.60 1001.25 1002.08 1002.58 1003.15 1003.93 1004.87 1005.65 1006.47 1007.17 1008.21 1009.28 1010.25 1011.53 1012.53 1013.11 1013.62 1014.29 1015.02 1015.66 1016.12 1016.61 1017.12 1017.92 1018.82 1018.87 1018.99
995.80 995.98 996.64 997.14 998.10 999.95 1000.97 1001.97 1002.61 1002.86 1003.40 1004.26 1004.81 1005.70 1006.43 1007.12 1008.49 1009.19 1010.71 1011.65 1012.48 1013.12 1013.88 1014.39 1014.81 1015.55 1015.96 1015.69 1016.98 1017.24 1018.09 1018.65
995.22 995.35 995.84 996.22 996.66 998.58 999.81 1000.72 1001.29 1001.89 1002.76 1003.23 1004.03 1004.87 1005.78 1006.42 1007.34 1008.30 1009.82 1010.82 1011.88 1012.76 1013.51 1013.91 1014.33 1015.44 1015.53 1015.62 1015.86 1016.17 1016.76 1017.41
994.96 994.87 994.85 995.46 995.77 997.07 998.59 999.47 1000.34 1001.13 1001.87 1002.43 1003.30 1004.15 1004.51 1005.70 1006.57 1007.52 1008.67 1009.83 1011.01 1012.11 1013.28 1013.66 1013.96 1014.57 1015.17 1015.65 1016.09 1016.03 1015.88 1015.83
995.77 994.15 994.22 994.65 995.33 995.93 997.62 998.41 999.33 1000.13 1000.76 1001.48 1002.32 1003.22 1003.79 1004.60 1005.78 1006.72 1007.76 1008.69 1009.94 1010.95 1012.14 1012.84 1013.54 1013.90 1014.93 1015.25 1015.66 1015.48 1015.08 1015.17
998.78 996.79 994.32 994.09 994.86 995.52 997.07 997.86 998.54 999.04 999.62 1000.06 1001.21 1002.23 1002.94 1003.85 1004.94 1006.00 1006.98 1007.82 1008.99 1010.03 1011.12 1011.82 1012.35 1013.06 1013.80 1014.51 1014.58 1014.59 1014.51 1014.61
1001.47 999.35 997.50 997.06 995.85 995.25 996.38 997.38 998.26 998.27 998.95 999.21 999.80 1001.02 1001.95 1003.08 1004.16 1005.08 1006.12 1007.12 1007.87 1008.79 1009.88 1010.81 1011.70 1012.43 1012.61 1013.36 1013.60 1013.76 1013.83 1013.87
Wind_Speed
11 13 13 11 14 17 18 20 21 21 21 18 16 14 15 17 16 15 13 15 15 14 12 12 11 10 8 1 8 12 4 12
11 13 15 15 14 13 18 19 20 21 21 19 14 12 13 15 15 14 16 16 15 14 12 11 12 9 7 3 6 11 6 9
7 11 12 14 12 14 15 17 19 19 20 20 16 14 15 15 15 16 16 15 15 14 13 12 11 10 5 5 8 3 6 5
12 13 14 12 11 14 15 15 16 17 18 19 15 15 14 16 15 16 16 15 14 14 13 13 12 9 7 6 8 6 4 5
14 14 14 15 13 11 10 9 10 13 18 17 15 13 12 11 10 10 11 14 11 12 11 10 13 10 10 9 6 7 5 5
18 16 15 15 11 11 13 11 11 11 15 17 12 9 12 11 9 13 12 11 13 13 10 11 12 12 12 10 7 8 6 7
19 19 16 15 11 12 13 14 11 14 15 17 13 13 12 11 11 12 12 13 12 12 12 11 10 11 11 8 8 5 7 8
17 21 19 15 14 15 13 13 16 14 14 15 17 13 13 12 12 12 12 12 12 12 12 11 9 9 10 9 9 6 7 10
18 21 22 19 17 14 15 14 15 15 15 18 19 15 16 14 12 12 12 12 15 12 11 10 10 9 11 10 8 8 8 8
20 16 22 21 19 16 14 14 13 13 15 15 20 18 18 15 12 12 13 11 11 11 10 11 9 10 9 9 9 9 10 9
20 19 24 23 21 16 16 15 15 13 13 14 20 18 17 15 12 12 15 11 10 11 10 11 10 10 10 9 9 9 10 9
21 20 20 24 17 14 14 14 14 13 13 14 20 16 18 16 13 14 14 13 12 11 13 11 10 10 11 10 8 8 9 9
22 20 18 18 16 16 13 15 14 14 14 17 20 18 20 19 13 15 15 14 15 15 12 13 11 10 8 8 8 8 8 9
21 22 20 18 15 14 11 14 15 14 15 17 17 21 22 18 17 17 17 13 15 16 16 12 9 11 9 9 9 7 9 9
23 22 21 20 24 14 12 14 12 12 13 14 17 20 22 22 21 16 18 15 13 16 17 18 13 11 12 7 9 8 9 9
21 23 22 20 25 19 22 16 15 12 14 15 15 18 20 22 22 19 19 14 16 15 15 13 10 12 8 9 8 7 8 7
23 18 21 21 18 23 19 19 15 15 15 20 17 19 22 22 21 21 20 15 17 18 14 13 9 10 10 10 12 8 9 8
20 21 23 20 19 24 24 22 19 16 18 15 14 13 15 21 22 20 20 18 20 19 19 18 14 12 11 13 11 13 10 10
20 19 16 19 20 22 23 22 23 23 22 16 17 14 14 16 21 20 18 20 20 19 18 19 18 15 17 13 14 14 12 11
19 19 19 21 14 15 20 23 14 16 18 15 13 14 15 18 20 20 23 21 20 20 16 16 17 17 22 19 15 14 12 12
Wind_Direction
150 176 176 168 168 169 167 169 168 165 159 160 164 162 155 149 145 143 138 128 129 129 129 123 118 113 115 103 319 330 266 136
176 179 180 184 182 170 167 169 170 167 158 152 154 153 153 149 142 138 136 135 135 134 129 125 118 113 120 104 307 291 141 134
193 182 185 186 185 176 168 168 168 166 158 151 146 176 174 161 170 137 137 137 137 135 131 124 119 117 130 184 245 210 138 134
189 194 181 186 183 177 182 181 183 184 178 170 173 177 183 183 154 137 137 137 134 132 132 135 166 161 166 229 218 136 183 117
200 196 203 186 191 181 181 182 188 188 184 177 179 174 182 188 151 154 157 155 158 153 152 173 191 172 164 193 168 176 134 133
188 200 200 189 187 188 184 183 184 186 184 177 179 175 177 184 166 171 169 175 165 174 174 185 195 190 171 202 148 210 160 114
186 193 196 194 189 198 192 182 194 186 177 180 185 177 178 183 172 175 171 176 171 179 176 187 184 190 178 177 176 197 148 125
197 188 191 189 193 195 200 184 186 191 183 181 202 174 175 178 175 181 175 176 169 190 179 186 181 186 182 182 181 170 180 133
235 185 182 181 195 192 200 183 186 191 180 182 193 184 178 174 175 185 176 176 175 192 178 178 185 186 183 184 182 173 176 167
227 204 182 180 196 186 211 194 196 192 181 182 189 189 174 176 183 186 172 182 181 184 171 181 184 184 181 181 186 180 166 174
222 236 184 186 188 195 200 216 191 189 192 178 184 189 180 182 183 186 170 177 187 179 172 183 187 184 179 185 190 187 170 178
232 218 198 186 189 203 182 210 190 197 194 184 181 187 192 187 184 181 175 176 182 183 175 184 184 184 184 180 193 192 179 185
214 227 241 187 189 191 186 189 205 190 192 197 182 186 191 186 192 176 176 185 184 181 170 177 177 182 179 172 186 206 199 196
239 215 223 206 196 195 193 190 202 197 192 188 192 186 185 187 196 180 179 182 183 178 174 169 183 179 184 168 181 198 214 214
240 229 225 222 192 192 193 193 205 197 192 199 194 188 188 188 194 182 178 182 181 179 179 175 177 184 186 172 182 212 187 208
233 242 223 221 188 185 193 200 202 197 192 194 198 195 193 191 188 188 180 181 178 183 183 182 173 181 188 204 219 196 187 188
249 238 219 224 218 188 195 199 199 193 193 195 198 198 191 194 193 190 180 178 178 177 185 189 178 171 182 203 223 240 230 206
326 250 240 218 226 190 195 203 202 199 195 194 190 193 196 193 194 189 189 183 179 182 186 187 187 184 193 200 215 221 215 224
332 334 274 214 216 189 200 205 201 203 202 189 184 193 195 193 192 190 193 190 184 185 188 191 186 187 196 210 217 224 219 215
358 3 7 5 333 218 195 212 212 215 208 200 194 194 191 190 196 196 197 197 190 186 189 195 197 202 198 209 218 216 220 223